Wind_Speed
20 19 18 19 19 16 15 16 15 14 13 12 11 11 8 7 5 4 5 6 7 8 7 8 7 7 8 8 8 8 9 9 10 11 12 13 14 13 14 14 12 10 8 8 8 8 8 8 8 8 8 9 9 10 11 13 14 13 13 12 12 12 12 13 13 13 13 13 13 12 13 13 14 14 16 18 19 19 20 20 19 17 16 14 16
19 19 18 18 17 16 15 14 14 13 13 12 11 11 8 6 4 4 6 7 8 9 8 8 8 8 8 8 8 8 9 8 9 11 12 13 14 13 13 14 12 10 9 9 9 8 8 7 7 7 8 8 8 9 11 13 14 13 12 11 11 11 11 12 12 12 12 12 12 13 13 13 13 14 15 17 19 20 21 20 18 17 16 14 16
18 19 18 17 16 16 15 13 13 13 13 12 11 10 8 6 4 3 6 9 10 9 9 9 9 8 8 9 9 9 8 8 9 10 11 12 13 13 12 12 11 11 11 11 10 9 8 7 7 7 7 7 8 9 10 12 13 13 12 10 10 10 10 11 10 10 11 12 12 12 13 13 13 14 15 17 19 21 21 19 17 17 15 14 15
15 17 18 18 17 17 16 14 13 13 12 12 11 10 8 5 4 4 8 10 11 10 9 9 9 9 9 9 9 9 9 8 9 9 10 12 13 13 11 11 11 11 12 12 10 9 8 7 6 7 6 6 7 8 9 11 12 12 11 10 9 9 10 10 9 9 10 10 11 12 12 13 13 14 16 17 19 21 20 18 17 17 15 13 13
14 16 18 19 21 19 17 16 15 13 12 11 11 10 8 6 5 6 9 11 12 11 9 9 9 9 9 9 9 9 8 8 8 9 9 10 12 12 11 12 11 11 11 10 10 8 7 6 5 6 6 5 5 7 9 10 10 11 11 10 9 9 9 9 8 8 9 9 11 12 12 13 13 15 15 17 20 21 19 17 17 16 14 12 12
15 15 16 19 22 21 18 17 16 15 14 13 12 10 9 8 6 7 9 11 12 11 10 9 9 9 9 9 9 8 8 8 8 9 9 9 10 11 11 11 11 10 10 10 9 9 9 7 4 4 6 6 5 6 7 8 9 10 10 10 9 9 9 9 8 8 8 8 10 12 13 13 14 15 16 18 21 20 18 17 16 15 13 12 12
16 15 15 19 21 20 19 17 17 17 15 14 12 10 10 8 7 7 10 11 12 11 10 10 9 9 8 8 8 8 8 8 8 8 8 8 9 9 9 10 10 10 10 10 9 9 9 9 6 3 5 8 7 6 6 7 8 9 10 10 9 9 8 8 8 8 7 7 9 12 13 14 14 15 16 19 21 20 17 17 15 13 12 12 12
17 16 16 19 19 19 19 17 18 17 15 14 12 11 10 9 8 7 9 12 14 12 10 10 10 10 8 7 8 8 7 8 7 7 8 8 8 8 8 8 9 10 10 9 9 8 8 8 6 5 3 8 10 8 6 7 8 9 9 9 9 9 7 6 7 7 8 7 9 12 13 14 15 16 17 19 20 18 17 16 15 12 11 12 12
18 17 16 17 18 19 19 18 19 18 15 15 13 12 11 10 9 7 8 12 15 13 10 11 10 10 9 7 7 7 7 8 7 7 7 8 8 8 7 7 7 8 9 9 9 9 8 6 5 5 4 4 12 12 9 7 6 8 10 9 9 8 7 6 5 5 6 8 9 11 13 14 15 16 18 19 19 18 17 16 14 12 11 12 12
20 17 16 15 16 19 20 19 19 18 16 16 14 12 12 11 10 9 8 10 15 14 11 11 11 10 9 8 7 6 6 7 7 7 7 7 7 7 7 6 6 6 6 8 9 9 10 7 4 4 6 3 10 14 12 9 7 6 9 10 9 8 7 7 6 5 5 7 8 10 12 14 15 16 17 18 18 17 16 15 13 12 12 13 12
21 18 17 15 16 19 20 21 19 17 18 16 15 14 13 12 11 11 9 9 13 15 12 10 10 10 10 8 7 7 6 6 6 6 6 6 7 7 7 7 6 5 5 5 7 8 10 8 6 5 4 5 6 12 13 13 10 7 7 8 9 9 8 7 7 6 6 7 8 10 12 14 15 16 16 16 17 17 16 15 14 13 13 13 12
21 18 18 16 18 19 19 22 19 17 19 17 16 15 14 14 13 12 12 11 13 15 14 12 11 10 9 8 7 7 6 6 6 6 6 6 6 6 7 7 6 6 6 5 5 6 8 8 7 6 3 3 5 8 11 14 15 13 10 9 9 9 9 9 8 7 7 7 8 10 12 13 14 15 14 15 16 16 15 15 14 14 14 12 11
19 17 17 17 20 19 17 22 20 16 18 17 17 16 14 15 13 12 13 14 14 15 15 14 12 11 9 7 7 7 6 6 7 6 6 6 6 6 6 6 7 6 6 6 5 6 7 7 6 5 5 4 4 5 7 10 14 16 14 13 12 11 10 10 8 7 8 9 8 9 11 13 14 14 14 15 15 15 15 14 14 14 14 12 11
17 16 17 16 19 18 16 20 19 18 17 15 16 16 15 15 13 12 13 14 13 14 17 16 12 12 11 8 6 6 6 6 7 7 7 7 7 7 7 7 7 7 7 7 7 6 6 6 6 5 5 5 5 5 5 7 11 14 14 15 15 14 12 11 11 9 9 10 10 10 11 13 14 15 15 15 15 15 15 14 14 13 13 12 11
20 19 17 16 17 16 15 16 16 19 19 16 16 17 16 16 15 14 13 13 12 13 16 15 12 12 11 7 6 7 6 6 8 9 9 8 8 8 7 8 8 8 7 7 7 7 7 7 6 6 6 6 6 6 5 6 9 11 13 15 17 16 13 12 13 11 9 11 13 12 12 13 13 15 15 15 15 15 14 14 13 12 12 12 11
23 22 19 17 16 17 17 15 16 18 18 16 17 19 18 17 16 16 14 13 12 13 14 12 11 13 8 2 4 7 4 6 9 9 10 10 9 9 8 8 9 9 8 7 7 7 7 7 7 7 8 7 7 6 6 6 7 10 13 16 18 16 14 13 13 12 11 12 15 15 14 14 14 15 15 16 16 15 15 13 13 12 13 13 12
22 22 20 17 16 18 19 17 17 18 17 16 16 18 19 18 18 17 16 15 13 14 13 12 11 13 11 3 4 5 3 8 10 8 10 11 9 10 9 9 10 9 9 9 9 8 8 8 8 9 9 9 9 7 7 7 7 9 12 15 18 16 15 14 13 13 13 13 15 16 16 16 16 16 16 17 17 16 15 14 14 14 13 13 13
18 17 18 19 15 14 16 17 18 17 17 17 16 18 18 19 19 17 18 17 14 13 13 13 12 11 12 7 4 2 1 7 8 5 8 10 9 11 10 10 10 10 10 10 10 10 10 9 9 9 9 10 10 9 8 7 8 9 10 13 16 17 16 14 13 14 14 14 15 18 19 19 18 17 17 18 18 17 16 15 15 15 14 14 14
14 15 16 21 19 15 12 14 17 16 16 16 16 18 18 18 19 17 18 17 14 14 13 13 11 10 11 9 5 4 5 7 4 3 5 6 8 10 10 11 11 10 11 11 11 11 11 11 11 10 10 11 11 11 10 9 9 9 10 12 13 15 16 15 14 15 15 14 15 18 21 20 18 18 19 19 19 18 17 16 15 16 16 15 14
13 14 15 17 20 20 15 13 14 12 14 16 15 16 18 17 16 16 16 16 15 15 14 13 12 10 11 10 7 7 8 9 6 4 4 4 6 8 8 10 11 11 11 11 12 12 12 12 12 11 11 12 12 12 11 11 10 10 11 12 11 13 15 15 15 15 16 16 15 19 22 21 19 19 19 20 19 19 18 17 17 17 16 16 14
13 13 14 13 16 20 18 15 12 10 14 17 15 15 16 14 13 13 13 13 14 15 15 15 14 12 11 10 10 10 9 8 7 8 6 3 4 6 8 10 10 11 11 11 12 13 13 12 12 12 12 12 12 12 12 12 12 11 11 11 10 12 14 16 16 16 16 16 16 19 22 22 21 19 20 21 20 20 19 18 18 17 17 16 15
14 10 11 12 14 16 17 16 13 12 16 15 15 13 12 11 10 11 11 12 14 14 14 15 16 16 15 14 13 12 9 8 8 8 9 6 4 5 9 11 8 10 12 12 12 12 13 12 12 12 12 12 13 13 13 14 13 13 14 13 9 10 13 16 17 16 16 16 15 19 22 23 21 19 20 21 20 21 20 20 20 18 18 18 16
14 10 8 10 12 13 14 16 15 14 15 11 13 12 10 9 9 9 10 10 12 12 12 13 15 15 15 13 13 11 9 8 8 8 8 7 6 4 7 9 7 8 11 12 11 11 12 12 12 12 12 13 14 13 14 15 14 14 16 16 11 9 11 15 17 17 17 16 15 19 23 23 21 19 19 20 20 21 21 22 22 20 19 19 17
12 10 7 8 10 11 11 13 15 14 14 11 10 12 11 10 9 9 8 9 9 10 11 12 13 13 13 12 12 10 10 10 9 8 8 7 7 5 5 6 6 5 10 12 10 10 11 12 12 12 13 14 14 14 15 15 16 17 18 18 15 12 10 13 17 18 17 18 16 18 23 24 21 19 19 20 21 21 22 22 22 21 20 19 18
10 11 9 8 9 8 7 9 11 12 15 11 8 11 10 9 9 10 9 9 9 9 10 11 12 12 12 11 11 11 11 10 9 9 8 8 8 6 7 6 6 5 7 10 9 9 11 12 13 12 13 14 13 14 16 15 16 19 19 18 18 16 13 13 17 19 19 19 18 19 23 23 21 19 19 20 21 21 23 24 23 22 21 19 19
7 10 10 8 8 8 6 6 9 11 15 12 7 8 9 8 9 10 10 10 9 9 10 10 11 12 11 10 11 11 11 11 10 10 9 10 9 8 8 7 7 8 7 8 9 9 10 12 13 13 13 14 14 14 15 15 15 19 20 18 19 19 17 15 15 19 20 20 20 20 23 24 22 20 20 20 21 22 23 25 25 23 22 20 20
5 7 8 7 6 6 5 6 8 11 14 11 7 7 8 8 8 9 10 10 10 10 10 10 11 12 12 11 11 11 12 11 11 11 11 11 10 9 9 7 6 8 8 9 10 10 10 11 12 14 13 13 14 14 14 14 15 19 20 21 20 20 20 19 16 18 20 21 22 21 23 25 24 22 21 20 21 22 22 24 25 24 23 22 21
2 3 6 6 4 4 4 6 7 8 11 11 8 8 8 8 8 9 10 10 11 11 11 11 12 12 13 13 12 12 12 12 13 13 12 12 11 11 11 10 8 6 6 8 8 9 11 11 11 13 14 13 13 14 14 14 16 19 19 20 21 20 21 22 20 19 20 21 23 23 23 24 25 24 23 22 22 22 23 24 26 26 24 22 22
1 1 4 6 6 5 5 6 6 7 9 10 9 9 9 9 9 9 10 11 11 12 13 13 13 13 14 14 14 14 13 13 14 14 14 13 13 13 13 13 12 8 6 6 6 7 9 10 11 11 13 13 12 13 14 14 16 18 17 18 20 20 21 23 23 23 22 21 22 24 24 24 25 26 26 25 24 23 23 24 26 27 25 24 23
2 2 2 5 7 8 8 7 6 6 8 9 9 9 9 9 10 10 10 10 11 11 13 14 14 14 15 16 16 15 13 13 13 14 14 14 14 15 15 15 15 13 11 8 7 9 9 8 10 9 10 11 12 12 13 13 15 16 16 17 19 20 22 23 24 25 25 24 22 23 25 26 26 26 26 26 25 25 25 24 25 26 26 26 26
2 2 3 4 6 8 10 10 9 7 7 7 8 8 8 9 10 11 11 10 11 12 12 13 13 13 14 15 15 14 14 14 14 14 14 15 15 16 16 16 17 17 17 13 9 10 12 10 10 9 9 10 11 12 12 12 14 15 15 17 17 19 22 24 25 26 27 27 26 24 25 27 28 27 27 27 27 26 27 27 26 26 26 27 28
2 3 4 5 6 7 8 10 10 9 7 7 8 8 9 10 11 12 11 11 12 12 13 13 13 13 14 14 15 14 14 14 15 15 15 15 15 16 16 17 17 16 17 16 12 12 14 13 12 11 11 11 12 13 12 11 13 15 15 16 15 17 21 22 24 27 27 28 29 28 27 27 28 29 28 27 27 28 29 29 29 28 27 27 29
4 5 7 7 8 8 8 8 8 8 7 8 8 8 9 11 11 11 11 12 13 13 13 14 14 14 14 15 15 15 15 15 15 15 15 15 15 16 17 17 17 17 16 17 15 14 15 15 14 13 13 13 13 14 13 12 12 15 16 15 14 16 18 18 20 26 29 30 30 30 30 28 27 29 30 29 28 28 30 31 31 31 30 29 29
7 8 9 10 9 10 11 10 9 9 8 7 8 8 9 10 11 11 11 12 13 14 14 14 14 14 14 15 16 16 16 16 16 15 15 15 15 16 17 17 17 17 17 17 16 15 14 14 14 14 13 14 14 14 14 14 13 13 15 15 15 15 16 17 18 21 25 30 33 32 32 31 30 29 31 32 31 30 30 30 31 32 33 33 32
10 10 10 11 11 10 11 12 12 12 10 8 7 7 9 10 10 11 12 12 13 15 15 15 15 15 15 16 16 16 16 17 17 16 15 15 15 16 17 17 17 18 17 18 17 16 15 14 14 14 13 14 15 15 15 15 15 14 14 15 15 14 15 17 18 18 20 25 31 35 35 34 33 32 32 33 34 34 33 31 31 32 33 34 35
9 10 10 11 12 11 11 11 11 12 13 13 11 10 10 11 11 11 12 13 15 16 16 15 14 15 15 15 16 16 16 17 17 16 15 15 16 16 16 17 17 17 17 17 18 17 16 15 14 14 14 14 15 15 15 15 15 16 16 15 14 14 15 16 18 18 19 21 25 31 36 37 37 36 35 34 35 36 36 35 34 33 33 34 35
8 9 10 11 12 12 12 11 11 11 13 15 14 13 13 13 12 12 12 13 15 16 18 17 15 15 15 15 16 16 17 17 17 16 16 16 17 16 16 16 17 16 16 15 16 17 16 16 15 14 14 14 14 14 15 16 16 16 17 16 15 14 14 16 18 18 18 21 23 24 30 35 38 38 38 38 37 37 37 38 38 37 35 34 34
8 8 9 11 12 12 12 12 12 11 11 13 14 15 15 15 14 13 14 14 14 14 16 16 15 14 14 14 15 16 17 17 17 17 16 17 17 17 17 17 16 15 15 15 15 16 17 17 16 15 15 15 15 15 15 16 16 16 16 16 16 15 14 16 19 19 18 21 23 23 24 29 35 38 39 40 40 40 40 40 40 40 40 39 38
8 8 9 10 11 12 13 13 13 13 13 13 15 15 15 15 15 15 15 15 15 15 14 14 14 14 13 14 14 15 16 16 17 18 17 17 17 17 17 17 16 15 15 15 15 15 16 17 16 16 16 15 15 16 15 16 17 17 17 17 16 16 17 18 19 20 20 19 20 21 22 23 28 34 38 40 41 41 42 43 43 43 43 43 43
8 8 9 9 10 11 12 12 13 13 14 15 15 16 17 17 17 16 16 16 16 15 14 14 13 13 13 14 14 15 15 15 17 17 17 16 16 16 18 17 16 15 15 14 14 14 14 15 15 15 15 15 16 17 16 16 18 19 18 18 17 17 19 20 19 19 20 21 20 19 20 20 21 26 33 39 41 42 43 43 44 45 46 46 46
8 8 8 8 9 10 11 11 12 12 13 14 14 15 16 16 17 18 19 17 15 14 13 13 13 14 14 14 15 16 16 16 17 18 18 17 15 15 16 17 16 15 14 14 14 14 14 15 14 14 14 14 15 17 17 17 19 19 17 17 18 18 18 19 20 20 20 20 20 20 20 19 17 18 23 31 37 42 44 45 46 46 47 48 49
7 7 7 7 7 9 9 9 10 11 12 12 13 15 15 14 13 14 16 18 17 15 15 14 14 14 14 14 14 16 17 19 20 21 20 20 19 18 17 15 14 13 13 14 14 15 14 14 14 13 13 14 14 15 17 18 18 17 17 17 18 18 18 17 19 21 22 21 20 22 23 21 17 17 19 22 26 32 38 44 48 48 48 48 50
7 6 6 7 6 5 7 7 8 7 7 7 9 12 14 15 14 11 12 16 17 17 17 16 15 14 14 14 15 15 17 19 20 22 23 23 23 24 23 21 18 15 14 14 14 15 15 14 14 14 13 14 14 15 18 21 19 17 18 18 18 18 18 17 16 18 21 22 20 21 24 23 22 22 22 21 22 24 27 34 41 45 47 47 49
7 6 6 7 6 2 4 5 4 4 3 4 6 9 10 13 14 12 12 14 16 17 17 17 16 15 14 14 15 15 16 16 17 19 20 21 22 23 24 24 24 22 21 20 18 17 16 15 15 16 16 16 15 16 20 22 19 17 17 18 18 19 18 18 18 18 18 21 21 20 21 22 24 26 25 24 24 25 26 29 33 37 39 41 45
8 7 7 7 8 6 2 3 6 5 3 2 4 6 8 9 11 12 12 13 14 15 16 16 17 17 16 15 15 16 16 16 17 17 17 18 19 19 20 21 23 24 25 25 25 24 22 19 18 18 19 18 17 18 22 21 17 15 17 18 18 18 18 19 21 20 16 17 21 20 19 21 22 25 27 26 25 26 27 29 31 30 30 33 36
8 8 8 7 8 9 7 7 7 5 2 1 1 3 5 6 8 10 11 12 13 14 14 15 15 16 16 16 16 16 16 16 16 17 17 17 17 18 18 19 21 22 23 25 26 28 29 29 26 24 23 21 21 22 22 19 17 17 19 19 18 17 18 19 21 21 18 17 20 20 20 22 21 22 26 27 25 25 27 30 31 30 29 29 31
7 7 7 7 7 8 8 7 6 6 5 3 2 2 3 4 5 6 8 10 11 13 13 14 15 15 15 16 16 17 17 17 17 17 17 17 17 18 18 18 19 20 22 23 23 25 28 31 33 32 30 28 26 25 25 21 18 19 21 21 19 17 17 19 20 21 21 21 22 21 21 22 21 21 25 27 25 25 26 29 32 34 33 32 31
6 6 7 7 7 7 7 6 6 6 7 7 5 4 4 6 5 4 6 8 9 11 12 12 13 14 14 15 16 16 17 17 17 18 18 18 18 19 20 19 19 19 20 21 22 23 25 27 31 33 34 33 31 30 30 27 23 22 21 20 20 18 18 19 19 20 22 24 24 25 24 23 21 21 24 26 26 25 26 27 30 34 35 34 32
6 7 6 6 6 7 7 7 5 5 7 9 9 6 6 5 4 4 6 7 9 10 11 12 13 13 14 15 16 16 17 17 16 15 16 17 19 21 22 21 20 21 21 20 21 23 25 27 29 30 32 33 34 34 35 33 32 30 26 22 21 21 20 17 16 18 22 24 23 25 26 25 22 21 23 25 26 25 26 27 28 31 34 34 34
6 6 6 5 6 6 7 7 6 5 6 10 12 10 8 6 2 2 5 6 7 9 10 11 12 12 13 14 15 16 17 17 17 16 15 14 15 19 21 21 21 22 20 19 20 21 23 25 28 30 31 32 33 33 34 34 35 35 34 31 27 25 23 21 19 20 22 24 24 25 26 26 23 21 20 22 25 27 28 27 27 28 30 32 33
7 6 5 5 5 6 6 7 7 6 6 8 12 12 12 10 6 3 4 5 5 6 8 8 9 11 11 12 13 15 17 19 20 21 20 18 17 18 19 20 21 22 20 20 21 21 21 22 24 27 30 31 33 34 35 35 35 36 38 37 33 30 29 27 25 20 17 20 24 26 26 25 25 23 20 18 18 21 25 27 27 27 27 28 30
Wind_Direction
183 182 182 183 187 185 181 176 174 175 176 179 175 170 166 163 174 185 182 182 173 163 154 143 138 135 129 125 117 113 109 106 106 109 113 114 116 120 125 128 129 128 123 112 103 103 106 106 112 117 123 130 134 139 140 140 139 137 135 136 135 136 139 139 139 139 138 138 138 140 140 140 142 142 145 146 147 145 141 136 132 128 125 121 114
188 185 185 184 188 185 178 176 175 177 178 180 175 169 167 161 181 193 173 172 167 161 157 146 139 136 130 125 120 116 112 111 108 109 115 116 118 122 127 131 132 130 125 114 107 108 106 104 109 116 122 130 136 142 144 145 145 140 138 138 134 134 138 137 136 134 134 140 144 146 144 144 146 146 148 149 149 147 143 139 134 130 125 119 115
194 187 188 184 187 185 180 177 176 179 180 181 175 169 167 160 182 182 153 154 152 155 158 147 139 136 131 125 122 120 116 115 113 110 116 119 121 125 131 133 132 131 124 115 111 107 101 99 102 108 119 130 139 147 147 145 145 143 141 140 135 131 134 135 135 134 134 139 145 145 145 148 151 151 150 151 151 149 145 140 135 132 124 116 118
197 189 189 186 189 188 185 183 180 180 181 182 178 171 165 159 169 160 142 140 143 150 153 143 137 134 130 126 120 120 121 120 118 113 116 122 123 127 132 133 134 131 124 123 124 123 124 122 114 111 113 124 139 146 151 149 144 146 145 143 142 133 130 131 130 133 137 141 143 144 147 152 154 153 152 153 154 151 146 141 138 133 123 115 119
200 193 190 185 189 191 186 185 184 182 180 181 179 174 168 159 156 149 139 135 139 146 146 139 135 133 129 124 120 122 125 124 123 119 116 120 123 126 131 133 137 135 131 133 132 134 145 148 141 135 127 125 139 145 149 153 151 154 153 148 147 140 133 132 129 130 135 140 144 148 151 155 156 154 155 155 155 152 146 143 142 134 125 120 121
205 198 195 188 190 193 188 183 183 181 178 179 180 179 173 164 157 148 139 135 140 145 143 139 136 133 128 122 124 125 127 128 128 128 123 120 122 124 131 135 138 140 140 141 137 131 132 130 126 147 156 149 147 152 153 158 160 159 156 154 153 149 143 138 133 128 132 138 143 150 153 154 156 156 157 156 156 154 148 147 144 136 130 130 131
208 202 199 193 191 192 189 185 182 179 177 178 182 184 177 171 168 153 146 142 140 143 141 140 137 130 129 126 128 129 129 130 131 133 131 127 125 122 130 136 139 144 143 145 148 140 133 127 106 88 163 168 156 152 163 165 166 167 160 155 154 154 153 146 139 130 128 136 141 147 153 155 157 157 158 158 158 155 151 149 146 140 138 143 142
206 205 200 197 196 191 189 189 182 178 176 178 184 187 180 176 178 163 155 149 141 144 144 138 133 127 130 131 131 135 132 131 133 136 136 134 130 125 129 133 140 146 146 150 155 152 146 138 115 83 119 179 172 160 176 185 174 173 165 157 156 158 162 156 147 140 133 133 139 146 152 156 157 159 159 159 158 157 154 151 149 147 149 154 150
205 206 202 200 198 191 190 190 184 179 176 176 183 189 182 178 181 172 168 157 143 145 148 139 134 129 133 137 137 141 136 134 136 136 138 136 134 132 131 133 140 147 150 155 160 160 157 147 127 94 67 177 187 174 174 194 199 187 176 168 164 166 173 172 166 161 146 138 140 148 154 157 158 159 159 160 160 160 159 155 154 156 159 159 156
203 205 203 200 198 195 194 190 184 181 177 176 183 187 185 184 180 170 174 163 142 144 151 144 139 134 137 143 143 144 139 139 139 138 141 136 138 139 135 141 148 151 154 156 159 161 163 156 130 101 56 88 190 190 181 184 199 203 192 181 176 177 181 184 183 185 176 155 148 155 158 157 158 160 161 163 163 162 163 160 161 165 164 163 162
202 204 201 195 195 198 197 190 184 181 178 178 184 186 185 187 182 168 164 157 143 148 155 145 140 138 140 145 146 148 146 145 147 145 144 140 146 148 146 152 157 161 163 153 154 160 166 163 144 132 67 65 160 191 195 188 186 195 205 198 191 185 183 189 187 185 188 173 161 164 164 162 162 163 165 167 166 165 166 166 168 170 168 168 167
200 203 201 199 196 195 193 188 186 184 181 181 184 186 185 187 188 173 157 149 148 153 157 147 137 135 139 145 147 153 156 157 158 153 151 150 157 160 160 162 162 172 176 162 157 163 166 165 152 145 130 87 127 171 191 195 194 191 198 212 209 194 185 189 187 187 185 177 177 174 171 172 170 170 172 171 170 169 169 168 168 171 172 172 171
201 202 202 205 200 195 191 187 187 186 184 183 185 186 185 187 190 178 158 154 157 159 157 148 141 142 143 147 152 159 164 169 169 165 164 163 167 169 169 173 172 176 182 179 176 175 173 168 158 151 152 147 145 164 179 195 201 194 195 210 214 207 195 186 184 191 188 180 190 189 180 180 179 178 178 176 176 175 173 169 165 171 175 174 171
207 204 206 210 202 198 194 188 186 188 187 185 183 181 183 188 187 181 171 163 163 163 158 153 158 162 153 150 163 168 171 184 184 180 176 173 178 180 178 186 187 183 183 186 188 190 190 182 170 167 168 161 160 173 176 191 198 194 195 200 207 216 209 192 191 200 201 192 195 200 192 188 186 184 182 183 183 179 175 172 168 173 176 176 173
217 214 212 213 207 202 199 194 187 187 191 189 182 178 182 189 189 187 182 170 164 166 166 166 172 167 159 167 181 175 173 195 200 192 188 184 183 188 189 193 197 193 190 191 192 196 197 192 184 180 180 173 169 176 174 189 204 200 196 190 194 214 214 195 197 206 217 207 197 203 204 199 196 190 188 188 186 182 181 179 175 175 177 180 180
216 218 217 214 210 206 202 199 194 189 190 190 187 185 186 188 193 192 186 179 172 172 177 181 178 164 160 210 208 192 182 189 197 190 187 191 190 194 195 196 203 200 195 199 199 200 202 198 194 191 190 186 183 185 175 190 219 211 199 189 189 205 208 195 201 210 218 211 199 203 210 206 202 199 195 190 185 184 184 184 183 182 179 181 185
209 212 215 213 213 212 208 202 200 196 191 190 190 191 190 191 196 194 191 191 181 176 182 190 192 175 163 179 229 216 186 172 183 181 183 194 197 199 201 199 206 207 203 206 204 205 207 202 201 199 198 196 192 192 186 190 207 200 196 194 190 199 205 203 208 210 211 210 201 202 207 205 201 203 203 194 189 188 186 187 188 187 184 183 188
203 201 203 206 209 213 211 209 208 201 193 192 192 193 194 196 198 197 196 199 187 180 185 188 201 196 178 190 224 211 181 178 172 157 179 194 197 199 205 204 205 209 210 211 209 209 210 207 211 207 201 203 198 195 195 195 193 190 196 201 197 197 202 207 208 204 205 207 205 205 204 203 198 201 207 200 194 193 190 190 188 189 191 190 192
194 191 195 204 209 211 207 211 214 206 194 190 190 191 194 198 199 199 201 200 190 186 190 185 194 213 206 212 217 191 224 224 194 151 170 185 198 200 203 205 206 210 213 215 213 213 214 213 215 211 205 207 205 200 200 201 198 194 200 208 210 205 201 204 205 202 204 204 206 206 202 202 199 199 208 206 198 196 196 194 191 191 195 197 198
192 189 192 199 208 212 207 207 213 211 199 190 187 187 192 198 197 200 203 201 196 191 191 185 186 206 219 224 230 219 225 233 245 247 195 161 192 206 204 204 206 209 213 218 217 216 218 218 216 212 212 213 210 208 204 205 206 200 201 209 215 212 202 201 204 202 205 208 207 203 200 201 201 201 208 208 201 199 198 197 196 198 201 203 202
183 188 194 195 202 208 209 209 208 220 218 197 185 183 186 190 189 194 201 199 201 197 191 191 192 201 213 220 233 236 232 232 242 252 246 205 193 202 198 198 206 210 211 215 217 219 222 222 219 215 215 218 216 215 211 209 210 206 210 214 209 211 205 200 202 200 204 211 205 200 200 200 201 204 208 208 205 203 199 199 202 204 206 208 205
174 184 198 205 209 208 210 215 209 224 236 208 176 173 175 178 179 187 196 197 203 205 198 196 199 206 208 206 217 226 229 233 233 242 252 249 236 208 190 189 203 207 203 207 209 214 220 220 222 220 216 219 220 220 217 215 214 210 217 222 209 207 205 197 200 199 203 211 204 199 201 200 201 206 208 208 208 205 201 202 206 208 209 211 209
171 179 192 204 213 210 209 217 213 223 245 221 177 175 176 176 179 180 191 200 205 212 211 206 204 211 212 209 215 220 222 232 237 239 245 251 257 245 202 196 213 204 192 200 203 203 211 215 223 226 220 221 222 219 218 220 221 216 218 225 218 208 205 197 198 200 202 207 204 200 201 200 202 207 209 209 210 207 202 204 208 209 212 215 214
164 170 185 197 205 209 208 217 219 224 244 234 186 181 180 179 185 185 191 201 205 211 218 219 218 218 218 218 224 227 227 232 239 242 244 250 257 266 254 233 239 212 177 186 200 202 207 210 216 223 223 224 223 218 219 220 224 224 222 226 223 214 210 200 198 201 204 205 204 202 202 203 204 208 212 212 212 211 205 207 212 212 215 218 216
159 165 178 188 193 202 204 214 220 226 241 239 191 174 175 175 186 193 197 203 207 212 216 220 224 225 224 223 226 231 234 234 238 244 245 251 253 256 263 254 254 247 185 183 201 206 212 215 214 216 218 220 220 220 222 219 223 228 225 225 226 220 215 209 200 201 205 206 206 205 204 206 207 211 216 215 215 216 209 209 214 214 217 221 218
161 164 168 170 180 189 189 206 221 227 237 237 201 175 176 180 189 195 201 205 207 213 219 221 223 226 229 227 225 230 237 238 239 243 244 246 249 251 257 253 248 255 239 216 216 212 214 217 216 216 213 212 214 218 222 218 223 230 223 218 225 224 218 216 208 203 205 207 208 209 208 209 210 214 220 219 218 219 215 212 214 217 219 220 218
183 172 164 159 168 180 182 205 221 227 234 234 210 187 184 188 194 197 202 206 206 210 219 223 222 224 227 228 228 230 235 239 238 241 243 245 248 252 257 259 249 246 247 242 238 232 226 219 215 215 213 212 211 211 218 218 223 233 226 216 221 226 221 219 216 209 207 207 209 212 212 212 211 214 220 224 223 221 219 216 216 219 219 216 215
216 187 171 167 168 172 186 212 223 228 234 231 217 202 196 197 200 203 204 206 209 213 217 222 223 222 224 226 230 232 233 236 238 240 241 243 247 249 251 256 258 253 249 247 245 243 237 228 220 214 212 213 211 209 215 216 220 230 227 217 217 224 224 220 219 217 212 210 210 210 214 217 217 215 217 223 228 226 222 219 219 221 220 217 216
318 231 186 188 196 194 195 215 228 232 232 231 223 210 205 207 207 208 207 207 211 216 218 221 222 221 223 228 232 235 234 233 236 237 238 240 243 246 248 251 256 260 261 256 251 250 242 233 230 220 210 211 209 208 212 213 222 228 224 217 216 221 225 221 220 221 218 216 215 210 210 217 222 220 217 219 226 229 228 225 224 223 221 221 219
348 311 228 207 212 215 213 212 220 230 234 238 231 214 208 214 216 216 213 208 210 217 220 222 223 223 225 227 229 233 232 231 233 234 233 235 238 243 247 249 252 255 260 265 261 260 257 243 236 228 212 210 208 210 212 211 226 230 218 216 219 220 226 223 219 223 222 219 219 215 213 215 220 222 221 219 222 228 231 230 229 227 225 224 222
331 309 281 245 232 229 224 221 223 228 232 240 237 221 215 219 223 224 220 212 212 217 221 223 224 225 224 223 225 228 228 229 232 232 231 232 234 239 243 246 248 250 253 259 261 257 256 253 248 241 231 227 217 214 215 214 232 237 216 214 222 224 229 229 222 222 224 222 221 220 219 218 218 221 223 223 222 224 229 232 233 232 230 227 224
253 256 262 255 249 243 230 224 226 229 228 236 238 228 223 223 224 226 221 216 217 219 222 224 224 225 225 225 227 227 226 228 230 231 232 232 233 237 240 242 245 245 247 251 255 255 254 254 255 250 245 241 228 220 219 215 232 241 223 212 221 228 232 233 229 226 224 224 223 221 221 221 221 221 223 224 224 223 225 229 231 232 233 231 228
240 238 240 241 246 249 242 228 221 222 225 229 231 228 227 225 224 227 226 222 222 223 223 224 224 225 227 230 230 228 227 227 228 229 231 231 231 234 237 238 240 240 240 243 249 255 253 249 249 249 248 248 236 225 225 221 225 234 228 217 218 227 230 229 232 233 228 225 224 223 222 222 223 224 223 223 225 225 225 226 228 229 231 233 232
244 242 239 235 237 242 245 243 231 223 222 228 234 235 234 232 228 227 229 226 225 225 225 224 223 224 227 231 233 231 229 229 229 229 230 230 228 231 234 235 237 238 237 240 246 252 252 246 243 242 243 244 240 233 230 228 226 224 222 218 215 223 230 227 229 238 237 231 227 226 225 223 223 225 225 225 225 226 227 228 228 229 231 232 233
248 247 245 240 238 236 239 242 239 235 231 229 235 240 241 242 238 232 231 229 229 227 225 223 222 221 224 229 232 232 230 230 229 229 231 230 229 230 231 232 236 239 238 240 244 248 251 248 242 240 237 234 235 238 236 233 232 227 221 220 217 218 227 230 228 235 245 242 233 229 228 226 225 225 226 227 226 227 228 229 231 231 233 235 236
254 250 248 246 244 242 240 237 236 237 236 233 234 237 239 239 238 237 235 232 233 231 228 224 222 221 223 226 229 229 229 230 229 228 228 228 228 230 231 231 233 235 236 238 241 245 251 251 245 241 241 237 234 237 238 235 232 231 228 224 220 218 224 232 234 233 241 248 244 236 232 230 229 228 227 228 228 228 229 230 232 233 234 237 239
265 256 251 249 246 245 244 241 237 233 233 234 235 236 237 236 234 235 235 233 235 237 236 232 227 224 224 226 229 228 227 229 230 228 227 227 228 229 231 232 233 232 232 234 237 241 247 249 247 243 243 245 243 239 237 235 232 230 230 227 222 221 224 231 239 240 239 245 249 245 238 234 232 231 231 231 231 230 230 231 232 233 234 237 239
278 271 261 256 251 248 246 245 242 235 229 230 233 233 233 232 231 231 232 233 237 241 242 241 237 231 228 230 234 233 231 230 230 230 229 227 226 228 231 233 234 232 229 229 233 238 241 244 244 242 241 242 245 243 237 235 234 228 226 225 222 222 223 228 237 243 243 244 247 247 242 236 233 232 233 233 234 234 233 233 233 234 235 236 238
277 272 265 258 254 251 249 247 245 240 233 230 231 232 230 228 227 227 228 229 232 237 239 240 242 240 236 236 238 238 236 234 233 233 231 228 226 226 229 231 232 231 228 228 230 234 239 242 241 239 239 239 242 245 241 239 239 233 227 226 221 219 222 224 230 238 242 244 248 250 248 243 238 235 234 233 233 234 235 236 235 235 236 237 238
293 280 271 261 253 252 250 247 244 243 241 238 235 233 233 233 232 231 230 229 228 231 233 235 238 242 241 240 242 242 239 238 237 234 231 228 228 227 227 228 228 226 226 228 229 231 235 240 240 239 241 241 240 240 237 235 237 234 228 228 227 224 222 222 224 230 235 239 243 248 253 252 245 240 237 235 233 233 233 235 236 237 237 237 238
318 307 299 281 258 248 246 244 242 242 243 244 242 238 237 237 235 234 234 234 234 233 234 236 237 239 241 242 243 245 245 245 243 240 235 231 231 234 233 231 230 226 224 226 229 231 234 236 238 238 239 241 241 240 234 229 230 232 228 226 231 232 229 229 229 227 228 235 237 237 242 246 239 234 236 236 235 234 233 233 235 236 237 238 239
323 316 320 312 277 247 239 240 237 234 237 241 243 245 244 244 247 245 237 235 237 238 238 240 240 239 240 243 246 248 249 250 248 247 245 240 237 239 240 238 238 236 234 233 232 232 234 236 238 238 238 241 243 245 247 241 234 235 232 228 231 235 236 237 237 230 224 227 234 236 237 238 233 229 231 234 237 238 235 234 234 233 234 235 236
334 332 338 332 308 252 234 237 228 220 225 227 230 240 245 245 250 257 248 239 238 239 240 242 242 241 240 242 247 250 250 251 251 251 252 249 246 244 242 241 242 244 244 243 241 239 239 240 241 240 242 244 242 245 254 252 242 235 235 236 235 237 239 240 242 239 226 218 225 238 240 236 232 232 233 232 234 236 236 237 239 238 236 236 237
345 347 351 349 347 309 234 225 182 156 168 190 208 227 238 236 236 239 244 244 242 240 241 241 243 244 243 241 242 244 246 247 249 252 255 255 253 250 248 247 245 244 243 243 243 244 244 245 245 241 240 242 243 244 248 250 245 238 237 239 239 239 241 240 242 248 235 217 219 234 241 238 233 233 237 238 234 233 233 237 243 245 244 243 242
350 355 358 3 13 22 59 120 109 111 138 176 209 226 228 227 226 226 233 242 244 243 244 244 245 246 246 246 244 245 247 248 248 250 252 255 258 257 255 254 253 249 245 243 241 242 244 249 252 248 244 242 242 244 246 246 246 244 241 241 240 240 242 242 244 249 241 218 218 228 237 239 234 230 236 241 240 237 235 235 241 248 250 249 246
354 4 7 10 20 33 56 88 99 97 89 52 272 245 237 231 226 224 230 239 243 246 247 248 249 249 248 249 250 250 251 253 252 252 253 254 258 259 257 255 256 256 253 249 245 243 242 244 247 250 250 249 247 247 248 247 244 245 246 246 245 243 245 249 250 251 246 229 222 228 238 240 234 231 238 243 243 242 241 240 243 247 248 249 249
354 4 10 16 26 38 51 67 81 76 55 25 353 313 283 266 243 228 234 242 244 246 248 248 249 250 251 250 251 252 253 254 254 254 256 256 257 258 257 255 256 257 256 254 252 248 245 243 243 245 247 250 251 251 251 251 249 248 248 250 253 254 254 255 255 252 250 240 229 231 243 244 236 235 243 247 246 243 242 244 248 251 250 249 249
0 5 12 21 29 36 44 53 61 53 32 13 3 349 316 299 286 263 256 255 253 252 252 251 251 252 252 251 250 253 254 255 255 255 255 258 258 258 259 259 258 257 256 254 254 254 253 250 248 247 247 248 249 250 250 250 249 251 254 256 258 258 255 254 253 250 249 245 235 232 242 247 240 237 246 251 250 245 243 245 249 253 255 254 251
7 10 14 21 27 33 36 40 48 43 16 1 356 349 332 316 297 282 277 266 261 262 259 258 258 256 255 255 254 256 257 257 258 258 255 254 256 259 261 262 261 260 259 258 256 254 254 255 254 255 255 254 253 252 252 250 248 249 255 259 254 251 250 251 252 250 247 247 240 229 234 244 245 242 248 252 252 248 246 246 248 251 257 259 257
9 12 17 22 26 31 32 31 39 47 19 359 358 3 359 351 345 296 294 276 265 271 268 263 264 262 261 261 260 259 260 260 262 265 264 262 262 261 262 263 263 262 262 262 261 259 256 256 256 257 259 260 259 258 256 253 249 246 249 251 248 247 248 248 248 250 248 248 242 227 226 240 246 245 249 253 253 249 246 246 248 249 254 260 262
14 15 19 26 28 30 33 33 34 40 29 5 5 14 15 13 28 30 327 304 285 285 284 280 279 276 273 272 269 264 263 264 265 267 268 272 273 268 266 267 265 263 264 263 263 264 262 259 257 255 255 257 258 258 257 256 252 247 244 245 246 247 248 245 243 247 250 250 241 224 219 233 243 243 245 249 253 250 244 244 247 246 248 255 259
Height
824 826 828 830 831 833 833 834 835 836 837 837 838 838 839 839 840 840 840 841 841 842 842 843 844 845 845 846 847 847 848 849 849 850 851 852 853 853 854 855 856 856 857 857 858 858 859 859 859 860 860 861 861 862 862 862 863 864 864 864 864 865 865 865 866 867 868 869 869 870 871 871 872 872 873 874 875 876 876 877 878 878 879 879 880
823 824 826 829 831 831 832 833 834 835 836 837 837 838 838 838 839 839 839 840 841 842 842 843 844 845 846 846 847 847 848 849 850 850 851 852 853 854 855 856 856 857 857 858 859 859 860 860 860 861 861 862 862 862 863 863 864 864 865 865 866 866 866 866 867 867 868 869 870 871 872 872 873 873 874 875 876 877 877 878 879 879 880 881 881
822 822 825 828 830 830 831 832 833 834 836 836 837 837 837 837 838 838 839 840 841 842 842 843 844 845 846 846 847 848 848 849 850 850 851 852 853 854 855 856 857 858 858 859 859 860 861 861 861 861 862 862 862 863 864 864 864 865 866 866 867 867 867 867 868 868 869 870 871 872 872 873 873 874 875 876 876 877 878 879 880 880 881 882 882
821 822 823 826 829 830 831 832 833 834 835 836 836 837 836 837 838 838 839 840 841 842 842 843 844 845 846 846 848 848 849 849 850 851 852 852 853 855 856 856 857 858 859 859 860 861 861 862 862 862 862 863 863 863 864 865 865 866 866 867 867 868 868 868 869 869 870 871 871 872 873 873 874 875 876 876 877 878 879 880 881 881 882 882 883
820 822 824 825 828 830 831 831 833 833 834 836 836 836 836 836 838 838 838 839 841 842 843 843 844 845 846 847 848 849 849 850 850 851 852 853 853 854 856 857 857 858 859 860 860 861 862 862 862 863 863 863 863 864 864 865 866 866 867 867 868 868 869 869 870 870 871 871 872 873 873 874 875 876 876 877 878 879 880 881 882 882 883 883 884
819 822 823 825 827 830 830 830 832 832 833 835 836 836 835 836 837 838 838 839 841 842 842 843 844 845 846 847 848 849 850 850 851 851 852 853 854 854 856 857 858 859 860 860 861 861 862 862 863 863 863 863 864 864 865 865 866 867 867 868 869 869 869 870 870 871 872 872 872 873 874 874 875 876 877 878 879 880 881 882 882 883 884 884 885
819 822 823 824 826 828 829 830 830 831 833 834 835 835 835 836 836 837 838 839 840 842 843 844 844 846 847 848 848 849 850 850 851 852 852 853 854 855 856 857 858 859 860 861 861 861 862 863 863 863 862 863 863 864 865 866 866 867 868 868 869 870 870 871 871 872 872 873 873 873 874 875 876 877 878 879 880 881 881 882 883 884 885 885 886
819 821 822 823 825 826 828 829 830 831 832 833 834 835 835 835 836 836 837 838 840 843 843 844 845 846 848 848 849 849 850 851 851 852 852 853 854 855 856 857 858 858 860 861 861 862 862 863 863 863 862 862 863 864 865 865 866 867 868 869 869 870 871 871 872 872 873 873 874 874 875 876 876 877 878 879 880 881 882 883 884 884 885 886 886
818 820 822 822 823 825 826 828 829 829 830 832 833 834 834 835 836 836 836 837 840 843 844 844 845 846 848 849 849 850 850 851 851 852 852 853 854 855 856 857 858 859 859 860 861 861 862 863 863 863 863 862 862 864 864 865 866 867 868 869 870 870 871 872 872 873 874 874 875 875 875 876 877 878 879 880 881 882 883 883 884 885 885 886 887
817 819 820 821 822 823 824 826 827 828 829 830 832 833 833 834 835 836 836 836 839 843 844 844 845 846 848 849 850 850 850 851 851 852 852 853 854 855 856 857 858 859 859 860 861 861 862 862 863 863 862 862 862 863 864 865 866 867 868 869 870 870 871 872 873 874 874 875 876 876 876 877 878 878 879 880 881 882 883 884 885 885 885 886 887
816 817 819 819 821 822 823 825 826 826 827 829 830 831 832 834 834 835 836 836 838 841 843 844 845 846 848 849 850 850 851 851 851 852 852 853 854 855 856 857 858 859 860 860 860 861 861 862 863 863 863 862 862 862 863 864 865 866 867 868 869 870 871 872 873 874 874 875 876 876 877 877 878 879 880 881 881 882 883 884 885 885 886 886 887
814 815 816 817 819 821 822 822 824 825 826 827 828 830 831 832 833 834 835 836 838 840 841 843 845 846 848 849 850 851 851 851 852 852 852 853 853 854 855 857 858 858 859 860 860 860 861 861 862 863 863 862 862 862 863 864 865 866 867 868 869 870 871 872 873 874 875 876 876 877 877 878 879 879 880 881 882 883 883 884 885 886 886 886 887
812 813 814 815 817 819 820 820 822 824 825 826 827 828 830 831 832 833 835 837 838 839 840 842 844 846 847 849 850 850 851 851 851 852 852 853 853 854 855 856 857 858 858 859 860 860 860 861 862 863 863 862 862 862 863 863 863 864 866 867 868 869 870 871 873 874 875 876 877 877 878 878 879 880 880 881 882 883 883 884 885 886 886 886 887
810 811 812 813 814 816 818 819 821 822 824 825 826 827 828 830 831 832 834 836 837 838 838 841 843 844 845 849 850 849 850 850 850 851 851 852 853 853 854 855 856 857 858 858 859 859 860 860 861 862 862 863 863 863 863 863 863 863 864 866 867 868 869 871 872 873 874 875 876 877 878 878 879 880 880 881 882 882 883 884 885 886 887 887 887
809 810 811 811 813 814 816 818 819 820 822 824 824 825 827 829 830 831 832 834 836 837 838 839 841 842 844 847 847 845 848 849 849 849 850 851 852 853 853 854 855 856 857 857 858 858 859 859 860 861 862 862 863 863 863 863 863 863 863 864 866 867 868 870 871 872 873 874 875 877 877 878 879 879 880 881 881 882 883 884 885 886 887 887 888
808 808 809 810 811 813 814 816 817 819 820 821 822 823 825 827 828 830 830 832 834 835 837 837 838 840 842 843 842 840 844 848 846 847 848 850 851 852 853 854 854 855 856 856 857 858 858 858 859 860 861 861 862 862 863 863 862 862 863 864 865 866 867 869 870 871 872 872 874 875 876 877 878 879 880 880 881 882 883 884 885 886 887 887 888
807 808 808 809 810 811 813 814 815 816 817 818 819 821 823 825 826 828 829 830 832 834 836 836 837 838 840 843 842 839 840 842 842 844 846 848 849 850 851 853 853 854 855 855 856 857 857 858 858 859 859 860 861 862 862 862 862 862 863 863 864 865 866 867 868 869 870 871 872 874 875 876 877 878 879 880 881 882 883 884 885 886 887 887 888
807 807 807 808 809 810 812 813 814 815 815 816 818 819 821 823 824 826 828 829 830 832 834 835 837 837 837 840 839 838 838 838 838 843 845 846 847 849 850 850 852 852 853 854 855 855 856 856 857 858 858 859 860 861 861 861 861 862 862 862 863 864 865 866 867 868 869 870 871 872 873 874 876 877 878 879 880 881 883 884 885 885 886 887 888
806 806 805 806 808 810 812 814 815 815 814 814 816 818 819 821 823 824 826 827 829 831 832 834 836 837 837 838 837 837 839 837 835 839 845 847 846 847 848 848 850 851 852 853 853 854 855 855 856 857 857 858 859 859 860 860 860 861 861 861 862 863 864 865 866 867 868 869 870 870 872 873 874 876 877 878 879 880 882 883 884 885 885 886 887
805 804 805 806 807 809 812 814 816 815 814 814 814 816 818 819 821 823 824 825 827 829 831 832 834 836 837 837 837 837 837 836 834 835 841 846 847 846 847 847 848 849 850 851 851 852 853 854 855 855 856 857 857 858 859 859 859 860 860 860 861 861 862 864 865 865 866 867 868 869 870 872 873 875 876 877 878 879 880 882 883 884 884 885 886
805 804 805 806 807 809 811 813 815 816 816 814 814 815 816 818 819 822 823 824 826 827 829 831 832 834 836 836 837 837 835 835 836 835 836 842 847 847 846 846 846 847 847 849 850 850 851 853 853 854 855 856 856 857 857 858 858 859 859 858 859 860 861 862 863 864 865 866 866 868 869 870 872 873 874 876 877 878 879 880 882 883 883 884 885
803 804 805 806 807 809 810 812 814 816 816 814 812 813 815 817 819 821 822 824 825 827 829 830 830 833 835 835 836 836 835 834 835 835 834 836 840 843 844 843 843 844 845 846 847 849 850 851 852 852 853 854 855 855 856 856 857 857 857 857 857 858 859 860 861 862 863 864 865 866 867 869 870 872 873 874 875 876 877 879 880 881 882 883 884
800 803 805 806 808 809 810 811 812 814 816 813 811 812 814 816 818 820 822 823 825 826 827 829 830 831 832 833 834 834 834 834 834 834 835 834 835 837 838 839 839 840 842 844 845 846 848 849 850 851 851 852 853 854 854 854 855 856 855 855 856 856 857 858 859 861 862 863 863 865 866 868 869 870 871 872 874 875 876 877 879 880 881 882 883
800 803 806 807 808 808 809 810 811 814 816 814 812 812 814 816 817 819 821 822 824 825 826 827 829 829 830 831 832 832 833 833 834 834 834 834 835 835 835 835 836 836 840 844 844 844 846 847 848 849 849 850 851 851 852 853 853 853 854 854 854 855 855 856 857 859 860 862 862 863 864 866 867 869 870 871 872 873 875 876 877 878 879 881 882
802 803 806 807 807 808 808 809 810 813 815 815 812 812 813 815 816 818 820 821 823 824 825 827 828 828 829 830 831 832 832 833 833 834 834 835 835 835 835 835 835 835 837 841 842 842 844 845 845 846 847 848 848 849 850 850 851 851 851 852 853 853 854 854 855 857 858 860 861 862 863 864 866 867 868 869 871 872 873 874 875 877 878 879 880
804 805 806 807 807 808 808 808 810 812 815 814 811 811 812 814 816 817 819 820 822 823 824 826 827 828 828 829 830 831 832 832 833 834 834 835 835 835 835 835 836 836 836 837 838 839 841 842 843 844 845 845 846 847 847 848 848 848 849 850 851 851 852 853 853 855 856 858 859 860 861 862 864 865 867 868 869 870 871 873 874 875 876 877 878
806 806 804 804 806 806 807 809 811 813 814 812 810 810 811 813 815 816 818 819 820 822 824 825 826 827 827 828 829 830 831 832 833 833 834 835 835 835 836 836 836 836 835 834 835 835 837 838 840 841 842 843 843 844 845 846 846 845 846 848 848 849 850 851 852 852 854 855 857 858 859 860 861 863 865 866 867 868 870 871 872 873 874 875 876
805 804 802 803 805 805 808 811 812 812 812 811 810 809 810 812 814 815 816 818 819 820 822 824 825 825 826 827 827 828 829 830 831 832 833 834 834 835 836 836 836 836 834 833 832 832 833 835 837 838 840 841 841 842 842 843 844 843 844 845 846 847 847 849 850 850 851 852 854 856 857 858 859 860 862 864 865 866 868 869 870 871 872 873 874
803 802 802 802 804 806 808 811 811 811 811 810 809 808 809 811 812 814 815 816 818 819 820 822 823 824 825 826 826 827 828 829 830 831 832 833 834 834 835 835 836 835 835 834 832 830 831 832 833 835 837 838 839 840 840 841 841 841 842 843 844 844 844 845 847 848 849 850 851 853 854 856 857 858 859 861 862 864 865 867 868 869 870 871 872
802 802 802 802 804 807 808 809 810 810 810 809 809 808 809 810 811 813 814 815 816 818 819 820 821 821 823 825 826 826 826 827 828 829 830 831 832 833 834 834 835 834 834 834 832 830 830 831 831 833 834 836 837 838 838 839 839 839 841 842 842 842 841 842 844 845 846 847 848 850 851 853 854 855 856 858 860 861 862 864 865 867 868 869 870
803 803 803 804 805 807 807 807 808 808 809 809 809 808 808 809 811 812 813 814 815 816 817 818 819 819 820 822 823 823 824 826 827 828 828 829 830 831 831 832 833 833 833 833 832 830 830 830 831 832 833 834 835 835 836 837 837 837 839 839 840 840 840 840 841 842 844 845 845 846 848 849 851 852 853 854 856 858 859 860 862 863 865 866 867
804 804 805 805 805 806 806 806 807 807 808 809 808 807 807 808 810 811 812 812 813 815 816 817 817 818 818 819 820 821 823 824 825 826 826 827 828 828 829 830 830 831 832 832 831 829 829 830 830 831 831 832 833 833 834 835 835 835 836 837 838 839 839 839 839 840 841 842 842 843 844 846 847 849 850 851 852 853 855 856 858 859 861 862 864
804 804 805 805 805 805 806 806 806 806 807 807 808 807 807 808 809 810 810 811 812 813 814 815 816 816 817 817 818 819 821 822 823 823 824 825 825 826 827 827 828 829 829 830 829 827 828 829 829 829 830 830 830 831 832 833 833 833 834 835 836 837 837 837 837 837 838 839 840 840 841 842 844 845 846 847 848 849 850 852 853 854 856 857 859
803 804 804 805 805 805 805 805 805 805 805 806 806 806 807 807 808 808 809 810 811 811 812 813 814 814 815 815 816 818 819 820 820 821 821 822 823 823 824 825 825 826 827 827 827 826 825 826 826 827 828 828 828 829 830 831 831 831 832 833 834 834 835 835 835 834 834 836 837 838 839 839 840 841 843 844 845 846 847 848 849 850 851 852 853
802 802 803 803 803 803 803 803 803 803 803 803 804 805 806 807 807 807 808 809 810 810 811 811 812 812 813 814 815 816 817 817 818 818 819 820 820 821 821 822 823 823 824 825 825 824 823 823 824 824 824 825 826 826 827 828 829 829 829 830 830 831 832 833 833 832 831 832 834 835 836 837 838 838 839 841 842 844 845 846 847 847 848 848 849
800 801 801 801 801 802 802 802 801 801 801 802 803 804 805 807 807 807 807 808 809 809 810 809 810 810 811 812 813 814 815 815 815 816 817 817 818 818 818 819 820 821 822 822 822 822 822 821 821 821 821 822 823 824 824 825 825 826 827 827 828 828 829 831 831 830 829 829 830 831 833 834 835 836 837 838 839 840 842 843 844 844 845 845 845
799 799 799 799 799 799 800 800 800 800 800 801 802 803 804 806 806 807 807 808 808 808 808 808 808 808 809 810 811 812 812 812 813 814 814 815 816 816 816 816 817 818 818 819 820 820 820 820 820 820 819 820 820 821 822 822 822 823 823 824 824 825 826 828 829 829 828 826 826 827 828 830 832 833 834 835 835 836 838 839 840 840 841 842 842
798 798 798 798 797 797 798 798 799 799 799 800 801 802 803 804 805 806 806 806 806 807 807 807 807 807 807 808 808 809 810 810 811 811 812 813 813 813 813 814 814 815 815 816 817 817 818 818 817 818 818 818 818 818 819 819 819 819 820 820 821 822 823 824 826 826 826 824 823 823 824 825 827 829 830 831 832 832 833 834 835 836 837 838 838
797 797 797 797 796 796 796 796 797 797 798 799 800 801 801 802 803 804 804 805 805 806 806 806 806 806 805 805 806 807 808 808 808 809 810 811 810 810 811 811 812 812 812 813 814 814 815 815 815 815 815 815 815 816 816 817 817 816 816 816 817 818 819 820 821 822 823 822 821 820 820 821 822 824 825 826 826 827 828 829 830 831 831 832 833
797 796 796 795 795 795 795 795 795 796 796 797 798 799 800 801 801 802 802 803 803 804 804 804 804 804 803 804 804 805 806 806 806 807 808 808 808 807 808 808 809 809 809 810 811 811 811 811 811 811 812 812 812 813 814 815 815 813 812 813 813 814 815 816 816 817 819 819 819 818 817 818 819 819 820 820 820 821 822 823 824 825 826 827 827
796 796 795 794 794 794 794 794 795 795 795 796 797 798 798 799 799 800 800 801 801 801 801 802 802 802 802 802 802 803 804 804 804 805 805 805 805 805 805 806 807 807 806 807 808 808 808 808 808 808 809 808 809 809 810 810 810 809 809 810 810 810 811 812 812 813 814 815 816 816 815 815 815 815 815 814 814 814 816 817 817 817 819 820 821
796 796 795 794 793 793 793 793 794 794 795 796 796 796 796 796 796 797 797 797 798 799 799 800 800 800 800 800 801 801 802 802 802 803 803 803 803 803 803 804 804 805 805 805 805 805 805 805 805 805 805 805 805 806 807 806 806 806 807 807 807 807 808 809 808 809 809 810 812 812 812 812 812 811 810 810 809 810 810 810 809 810 811 813 813
796 796 795 794 793 793 793 793 793 794 794 795 795 795 795 795 794 795 795 796 796 797 798 799 799 799 799 799 799 800 800 801 801 801 801 802 802 802 802 802 803 803 803 804 803 803 803 802 802 803 803 802 803 804 805 805 805 804 804 805 804 804 805 805 805 804 805 806 807 808 809 809 809 808 806 806 806 806 806 804 803 804 805 806 806
797 796 795 794 793 792 792 792 792 793 793 793 793 794 795 795 795 795 796 796 795 795 795 796 796 797 797 797 797 797 798 798 799 799 799 800 800 800 800 801 801 801 801 802 802 801 801 800 800 800 800 800 799 800 803 804 803 802 802 802 802 801 801 801 801 801 801 802 803 804 804 805 805 804 803 802 801 800 799 799 799 799 800 800 800
797 796 796 794 793 792 792 791 791 792 792 792 793 793 794 794 794 795 795 795 794 794 793 793 793 794 794 795 795 795 796 796 797 797 797 797 797 797 798 798 797 798 798 798 799 799 799 799 798 797 796 797 797 797 800 801 800 799 799 798 798 798 798 798 797 798 799 799 799 800 799 799 799 799 799 798 798 796 795 793 793 793 794 794 795
798 797 796 795 794 793 792 792 792 792 792 792 792 792 793 793 793 793 794 794 793 792 792 792 792 792 792 793 793 793 794 794 795 795 796 796 796 795 795 795 794 794 794 794 794 795 795 796 795 794 794 794 794 795 797 798 797 796 796 795 795 795 794 794 794 795 796 796 796 796 794 793 794 794 793 793 794 793 791 789 788 787 788 789 789
799 798 797 796 795 794 794 793 792 792 792 793 792 792 792 792 791 791 791 791 791 791 791 791 791 790 791 791 791 791 792 792 793 793 794 794 794 793 793 793 792 791 790 790 790 790 790 791 791 791 791 791 791 792 794 795 794 793 793 793 792 792 791 791 791 791 792 792 793 792 790 787 789 790 788 788 789 789 788 786 784 783 783 783 783
799 798 798 797 796 795 795 794 794 793 793 793 792 792 792 791 790 790 790 790 790 789 789 789 789 789 789 789 789 789 790 790 791 791 792 792 792 792 791 790 790 789 788 787 787 787 786 786 786 786 786 786 787 788 789 790 790 790 790 790 790 790 788 787 787 787 787 788 789 789 786 783 783 784 783 783 784 784 783 782 780 778 778 778 778
800 799 798 798 797 797 796 795 795 795 794 793 792 791 791 790 790 790 790 789 789 788 788 788 788 788 788 787 787 787 787 787 788 789 790 790 790 790 789 788 787 786 785 785 784 784 783 783 782 783 782 783 783 784 784 785 786 787 788 788 788 787 785 784 783 782 781 782 784 785 783 779 778 779 779 779 779 779 778 777 776 774 773 773 773
800 800 799 798 798 797 797 796 796 796 795 794 793 792 791 790 789 789 789 788 787 787 787 787 786 786 786 786 786 786 785 785 786 786 786 787 788 787 786 785 784 783 782 782 781 780 780 779 779 779 779 779 779 779 779 780 782 784 784 783 783 783 782 780 779 777 776 776 778 780 779 776 775 775 775 775 774 773 773 772 771 771 770 769 769
800 800 799 799 798 798 798 797 797 797 796 795 794 792 791 790 789 789 789 788 787 787 787 786 785 784 784 784 784 784 784 784 784 784 784 784 785 784 784 783 781 780 780 780 779 778 777 776 776 775 775 774 774 774 774 774 776 777 778 778 779 778 776 775 774 773 771 769 772 774 773 771 771 770 770 770 768 766 767 767 767 767 767 766 765